Location: Aalen
(48.8330°N, 10.1000°E)
Time: 04:02:41
(UTC+01:00)

Envisat - Pass Details

Date: 08 December 2022
Orbit: 763 x 765 km, 98.2° (Epoch: 28 January)

Event Time Altitude Azimuth Distance (km) Brightness Sun altitude
Rises 05:31:46 0° 7° (N) 3,246 6.2 -23.3°
Reaches altitude 10° 05:34:13 10° 360° (N) 2,315 5.4 -22.9°
Enters shadow 05:36:02 21° 348° (NNW) 1,692 4.6 -22.6°
